Sterling, IL

6:50 AM CST on November 17, 2019 (GMT -0600)
Whiteside County-Bittorf

Weather History for KSQI - July, 2019

Change the Weather History Date:

Monday, July 15, 2019

  Actual Average Record
Temperature  
Mean Temperature 80 °F -  
Max Temperature 89 °F 81 °F 95 °F (2012)
Min Temperature 72 °F 60 °F 51 °F (2014)
Cooling Degree Days 16    
Growing Degree Days 30 (Base 50)    
Moisture  
Dew Point 68 °F    
Average Humidity 71    
Maximum Humidity 91    
Minimum Humidity 53    
Precipitation  
Precipitation 0.00 in - - ()
Sea Level Pressure  
Sea Level Pressure 29.63 in    
Wind  
Wind Speed 5 mph (SW)    
Max Wind Speed 13 mph    
Max Gust Speed 18 mph    
Visibility 10 miles    
Events      
Averages and records for this station are not official NWS values.
T = Trace of Precipitation, MM = Missing Value Source: NWS Daily Summary

Daily Weather History Graph

Daily Weather History Graph

Search for Another Location

Airport or City:

Astronomy

Jul. 15, 2019 Rise Set
Actual Time 5:37 AM CDT 8:31 PM CDT
Civil Twilight 5:03 AM CDT 9:04 PM CDT
Nautical Twilight 4:22 AM CDT 9:46 PM CDT
Astronomical Twilight 3:33 AM CDT 10:35 PM CDT
Moon 7:49 PM CDT (7/15) 4:24 AM CDT (7/15)
Length of Visible Light 16h 00m
Length of Day
14h 54m
Waxing Gibbous, 99% of the Moon is Illuminated
Jul 15
Waxing Gibbous
Jul 16
Full
Jul 24
Last Quarter
Jul 31
New
Aug 7
First Quarter

Hourly Weather History & Observations

Time (CDT) Temp. Heat Index Dew Point Humidity Pressure Visibility Wind Dir Wind Speed Gust Speed Precip Events Conditions
12:56 AM 73.9 °F - 70.0 °F 87% 29.65 in 10.0 mi ESE 3.5 mph - N/A   Clear
1:56 AM 73.9 °F - 70.0 °F 87% 29.64 in 10.0 mi Calm Calm - N/A   Clear
2:56 AM 75.9 °F - 71.1 °F 85% 29.65 in 10.0 mi Calm Calm - N/A   Mostly Cloudy
3:56 AM 73.9 °F - 71.1 °F 91% 29.64 in 10.0 mi Variable 3.5 mph - N/A   Clear
4:56 AM 73.0 °F - 69.1 °F 87% 29.65 in 10.0 mi Variable 3.5 mph - N/A   Clear
5:56 AM 73.0 °F - 66.9 °F 81% 29.67 in 10.0 mi WSW 6.9 mph - N/A   Clear
6:56 AM 73.0 °F - 66.9 °F 81% 29.68 in 10.0 mi WSW 4.6 mph - N/A   Scattered Clouds
7:56 AM 75.9 °F - 66.9 °F 74% 29.69 in 10.0 mi WSW 11.5 mph - N/A   Clear
8:56 AM 79.0 °F - 68.0 °F 69% 29.69 in 10.0 mi WSW 9.2 mph - N/A   Clear
9:56 AM 80.1 °F 82.3 °F 66.9 °F 64% 29.68 in 10.0 mi WSW 12.7 mph - N/A   Clear
10:56 AM 82.9 °F 85.8 °F 68.0 °F 60% 29.66 in 10.0 mi Variable 4.6 mph - N/A   Clear
11:56 AM 84.9 °F 88.2 °F 68.0 °F 57% 29.65 in 10.0 mi WSW 6.9 mph - N/A   Clear
12:56 PM 86.0 °F 89.4 °F 68.0 °F 55% 29.63 in 10.0 mi WSW 10.4 mph - N/A   Clear
1:56 PM 87.1 °F 91.3 °F 69.1 °F 55% 29.62 in 10.0 mi Variable 5.8 mph - N/A   Clear
2:56 PM 88.0 °F 92.1 °F 69.1 °F 53% 29.60 in 10.0 mi South 9.2 mph - N/A   Partly Cloudy
3:56 PM 89.1 °F 95.0 °F 71.1 °F 55% 29.59 in 10.0 mi SSW 8.1 mph - N/A   Scattered Clouds
4:56 PM 87.1 °F 92.8 °F 71.1 °F 59% 29.57 in 10.0 mi Variable 6.9 mph - N/A   Overcast
5:56 PM 84.0 °F 87.8 °F 69.1 °F 61% 29.57 in 10.0 mi Variable 4.6 mph 18.4 mph N/A   Scattered Clouds
6:56 PM 81.0 °F 83.0 °F 66.0 °F 60% 29.57 in 10.0 mi Variable 6.9 mph - N/A   Scattered Clouds
7:56 PM 79.0 °F - 66.0 °F 64% 29.57 in 10.0 mi Variable 5.8 mph - N/A   Clear
8:56 PM 75.9 °F - 66.0 °F 71% 29.57 in 10.0 mi Variable 4.6 mph - N/A   Clear
9:56 PM 72.0 °F - 66.9 °F 84% 29.59 in 10.0 mi Calm Calm - N/A   Partly Cloudy
10:56 PM 73.9 °F - 66.9 °F 79% 29.59 in 10.0 mi Calm Calm - N/A   Overcast
11:56 PM 75.0 °F - 66.9 °F 76% 29.60 in 10.0 mi Calm Calm - N/A   Overcast